Tracking 26951 objects as of 3-Feb-2023
HD Live streaming from Space Station
objects crossing your sky now

STARLINK-3074

Track STARLINK-3074 now!
10-day predictions
STARLINK-3074 is classified as:


NORAD ID: 49170
Int'l Code: 2021-082AS
Perigee: 577.0 km
Apogee: 581.3 km
Inclination: 70.0 °
Period: 96.1 minutes
Semi major axis: 6950 km
RCS: Unknown
Launch date: September 14, 2021
Source: United States (US)
Launch site: AIR FORCE WESTERN TEST RANGE (AFWTR)
Your satellite tracking list
Your tracking list is empty




NASA's NSSDC Master Catalog

Two Line Element Set (TLE):
1 49170U 21082AS  23033.92497443 -.00002069  00000-0 -16560-3 0  9997
2 49170  69.9993 265.5138 0003164 269.5256  90.5540 14.98344440 76600
Source of the keplerian elements: AFSPC